Location: Derby
(52.9213°N, 1.4761°W)
Time: 16:15:22
(UTC+01:00)

Vanguard 1 - Pass Details

Date: 23 May 2025
Orbit: 649 x 3822 km, 34.3° (Epoch: 14 June)

Event Time Altitude Azimuth Distance (km) Brightness Sun altitude
Rises 19:17:03 0° 246° (WSW) 7,494 15.4 14.3°
Reaches altitude 10° 19:23:20 10° 239° (WSW) 6,063 14.8 13.4°
Maximum altitude 19:37:21 32° 185° (S) 3,293 12.7 11.4°
Drops below altitude 10° 19:46:04 10° 127° (SE) 3,742 12.5 10.2°
Sets 19:48:54 0° 117° (ESE) 4,375 12.7 9.8°
